Home > Time Zones > World Clock > Weather > U.S.A. > Erie > Past weeks

Flag for U.S.A. Weather past 2 weeks in Erie, Pennsylvania, U.S.A.

Now
30 °F

Light freezing rain. Overcast.


Feels Like: 20 °F
Forecast: 11 / 39 °F
Wind: 13 mph from South

Location: Erie International Airport

Current Time: Mar 3, 2015 at 2:36:55 PM

Latest Report: Mar 3, 2015 at 1:51 PM


Visibility: 4 mi

Pressure: 29.88 "Hg

Humidity: 79%

Dew point: 24 °F

Location of ErieLocation

Historic Weather in Erie — Graph

°F

Erie temperature yesterday

Maximum temperature yesterday: 25 °F (at 12:51 PM)
Minimum temperature yesterday: 12 °F (at 10:51 PM)
Average temperature yesterday: 21 °F

Past Weeks' High & Low Weather Summary

 TemperatureHumidityPressure
High31 °F (Mar 1, 12:51 PM)92% (Feb 21, 10:51 PM)30.84 "Hg (Feb 21, 10:51 PM)
Low-15 °F (Feb 20, 2:51 AM)31% (Feb 24, 3:51 PM)29.68 "Hg (Feb 25, 2:00 AM)
Average11 °F69%30.24 "Hg
* Reported Feb 16 12:51 PM — Mar 3 12:51 PM, Erie, Weather by CustomWeather, © 2015

Note: Actual official high and low records may vary slightly from our data, if they occured in-between our weather recording intervals... More about our weather records

Advertising

Erie weather history for previous 24 hours

 ConditionsComfort  
Time TempWeatherWind HumidityBarometerVisibility
12:51 PM
Tue, Mar 3
28 °FLight freezing rain. Overcast.15 mph81%29.95 "Hg4 mi
11:51 AM25 °FLight snow. Overcast.12 mph78%30.05 "Hg1 mi
10:58 AM22 °FLight snow. Ice fog.14 mph82%30.08 "Hg1 mi
9:59 AM22 °FSnow. Ice fog.10 mph78%30.14 "Hg1 mi
8:51 AM21 °FOvercast.14 mph60%30.20 "Hg10 mi
7:51 AM20 °FMostly cloudy.13 mph60%30.23 "Hg10 mi
6:51 AM19 °FMostly cloudy.10 mph65%30.28 "Hg10 mi
5:51 AM18 °FOvercast.9 mph65%30.35 "Hg10 mi
4:51 AM16 °FClear.8 mph71%30.37 "Hg10 mi
3:51 AM16 °FClear.6 mph71%30.37 "Hg10 mi
2:51 AM15 °FClear.6 mph74%30.39 "Hg10 mi
1:51 AM15 °FClear.8 mph74%30.41 "Hg10 mi
12:51 AM13 °FClear.No wind81%30.41 "Hg9 mi
11:51 PM
Mon, Mar 2
12 °FClear.3 mph80%30.43 "Hg8 mi
10:51 PM12 °FClear.3 mph80%30.46 "Hg7 mi
9:51 PM13 °FClear.3 mph81%30.47 "Hg7 mi
8:51 PM15 °FClear.No wind80%30.47 "Hg6 mi
7:51 PM18 °FClear.5 mph77%30.48 "Hg8 mi
6:51 PM21 °FClear.6 mph74%30.49 "Hg9 mi
5:51 PM22 °FPassing clouds.9 mph68%30.48 "Hg10 mi
4:51 PM24 °FPartly sunny.12 mph68%30.48 "Hg10 mi
3:51 PM25 °FSunny.14 mph69%30.47 "Hg10 mi
2:51 PM25 °FSunny.15 mph66%30.46 "Hg10 mi
Weather by CustomWeather, © 2015

See weather overviewHow to use our weather pages